sat.trackr.live / text

‹ back to catalog

UNKNOWN

NORAD 87845

UNKNOWN UNKNOWN UNKNOWN

§ Identity

Operator
Country
Launch date
Launch site
Launch vehicle
Mass (kg)
RCS (m²)

External: N2YO · Heavens-Above

§ Orbital elements

Epoch: 2026-05-22T00:16:55.650144Z

Period
111.66 min
Inclination
98.8727°
Eccentricity
0.0574469
Mean motion
12.89679515 rev/d
Perigee alt
861.6 km
Apogee alt
1,744.0 km
Semi-major
7,680.9 km
B*
2.6040e-3
RAAN
73.2815°
Arg perigee
244.6387°
Mean anomaly
109.4183°
Rev number
58,586

§ Raw data

UNKNOWN1 87845U          26142.01175521  .00001375  00000+0  26040-2 0  99982 87845  98.8727  73.2815 0574469 244.6387 109.4183 12.89679515585861

JSON: /api/v1/satellites/87845 · /tle

For live sub-satellite position, see the globe view (requires WebGL).

§ Visibility from observer

Set your observer location to see the next 7 days of passes ≥ 10°. The values pass through the URL so the page stays shareable.

No JS? Fill the form by hand. The geolocation button needs JavaScript.